BEIDOU-3 M8 (C28)

Last updated on Mon Jun 22 2026 00:03:30 GMT+0000 (Coordinated Universal Time)

1 43108U 18003B 26171.51700953 -.00000093 00000+0 00000+0 0 9996 2 43108 54.3172 302.1809 0002615 260.4330 99.5328 1.86231030 57423
UTC large
Height (km)
Speed (km/s)
/
Latitude / Longitude
Inclination (degrees)
Orbital Period (minutes)
Azimuth
Elevation
Range (km)
Doppler Factor

Next 0 passes for location: London (51.5072 / 0.1276)

No passes found over London.
BEIDOU-3 M8 (C28)